Volver al catálogo

DMSP 5D-2 F13 DEB

ActivoSSO
NORAD 40576·DEBRIS·🇺🇸 United States

Lanzado Mar 24, 1995 desde Vandenberg Space Force Base

Loading…

Próximos Pases (próximas 24 horas)

TLE

ActualizadoSource: Space-Track

Época: Sep 14, 2026, 03:31 UTC

1 40576U 95015EK  26257.14659626  .00006452  00000-0  13570-2 0  9998
2 40576  98.5504 326.4724 0021194 241.3223 118.5846 14.59760869598456

Sigue DMSP 5D-2 F13 DEB en tiempo real con AllMySat

Download on the App Store